When you browse on this site, cookies collect data to enhance your experience and personalize the content and advertising you see.
Visit our Privacy Policy to learn more. By continuing to use the site, you agree to this use of cookies and data.
  • In Czech Republic
  • List of Countries
  • For 7 days
  • Water Temperature
  • Satellite Maps
  • Weather Map
  • Weather Widgets
  • user-avatar
    Login

    Hourly Weather Miami Beach

    Today, 19 April, Friday

    Time Temperature Precipitation Wind Pressure Humidity
    00:00 +29°C° 0 mm 9 mps 760 mmHg 69%
    01:00 +29°C° 0 mm 8 mps 760 mmHg 71%
    02:00 +29°C° 0.6 mm 9 mps 759 mmHg 71%
    03:00 +28°C° 0.6 mm 9 mps 759 mmHg 72%
    04:00 +28°C° 0.6 mm 10 mps 759 mmHg 72%
    05:00 +28°C° 2.2 mm 10 mps 759 mmHg 71%
    06:00 +28°C° 2.2 mm 9 mps 759 mmHg 70%
    07:00 +28°C° 2.2 mm 9 mps 759 mmHg 69%
    08:00 +29°C° 0.9 mm 9 mps 760 mmHg 67%
    09:00 +31°C° 0.9 mm 9 mps 760 mmHg 64%
    10:00 +32°C° 0.9 mm 9 mps 760 mmHg 62%
    11:00 +32°C° 0.7 mm 9 mps 760 mmHg 59%
    12:00 +33°C° 0.7 mm 9 mps 760 mmHg 56%
    13:00 +33°C° 0.7 mm 10 mps 759 mmHg 53%
    14:00 +33°C° 0.2 mm 9 mps 759 mmHg 51%
    15:00 +33°C° 0.2 mm 9 mps 758 mmHg 49%
    16:00 +34°C° 0.2 mm 9 mps 758 mmHg 48%
    17:00 +33°C° 0.8 mm 9 mps 758 mmHg 51%
    18:00 +32°C° 0.8 mm 9 mps 758 mmHg 54%
    19:00 +31°C° 0.8 mm 8 mps 758 mmHg 57%
    20:00 +29°C° 0.3 mm 8 mps 759 mmHg 62%
    21:00 +28°C° 0.3 mm 8 mps 759 mmHg 67%
    22:00 +27°C° 0.3 mm 7 mps 760 mmHg 71%
    23:00 +27°C° 0.2 mm 7 mps 760 mmHg 69%

    Tomorrow, 20 April, Saturday

    Time Temperature Precipitation Wind Pressure Humidity
    00:00 +26°C° 0.2 mm 6 mps 760 mmHg 67%
    01:00 +24°C° 0.2 mm 6 mps 760 mmHg 65%
    02:00 +24°C° 0 mm 6 mps 759 mmHg 62%
    03:00 +23°C° 0 mm 5 mps 759 mmHg 60%
    04:00 +23°C° 0 mm 5 mps 759 mmHg 57%
    05:00 +23°C° 0 mm 5 mps 760 mmHg 57%
    06:00 +23°C° 0 mm 5 mps 760 mmHg 56%
    07:00 +23°C° 0 mm 4 mps 760 mmHg 56%
    08:00 +25°C° 0 mm 4 mps 761 mmHg 55%
    09:00 +25°C° 0 mm 4 mps 761 mmHg 53%
    10:00 +26°C° 0 mm 4 mps 762 mmHg 52%
    11:00 +27°C° 0 mm 5 mps 762 mmHg 49%
    12:00 +27°C° 0 mm 5 mps 762 mmHg 46%
    13:00 +28°C° 0 mm 5 mps 761 mmHg 42%
    14:00 +29°C° 0 mm 6 mps 761 mmHg 39%
    15:00 +29°C° 0 mm 6 mps 761 mmHg 36%
    16:00 +30°C° 0 mm 7 mps 760 mmHg 33%
    17:00 +29°C° 0 mm 7 mps 761 mmHg 38%
    18:00 +28°C° 0 mm 7 mps 761 mmHg 43%
    19:00 +26°C° 0 mm 7 mps 761 mmHg 48%
    20:00 +26°C° 0 mm 7 mps 762 mmHg 49%
    21:00 +24°C° 0 mm 6 mps 763 mmHg 50%
    22:00 +23°C° 0 mm 6 mps 763 mmHg 51%
    23:00 +23°C° 0 mm 6 mps 763 mmHg 50%

    Day after tomorrow, 21 April, Sunday

    Time Temperature Precipitation Wind Pressure Humidity
    00:00 +22°C° 0 mm 6 mps 763 mmHg 49%
    01:00 +22°C° 0 mm 6 mps 763 mmHg 48%
    02:00 +22°C° 0 mm 6 mps 763 mmHg 47%
    03:00 +22°C° 0 mm 5 mps 763 mmHg 46%
    04:00 +22°C° 0 mm 5 mps 763 mmHg 45%
    05:00 +22°C° 0 mm 4 mps 763 mmHg 46%
    06:00 +22°C° 0 mm 4 mps 764 mmHg 47%
    07:00 +22°C° 0 mm 3 mps 764 mmHg 47%
    08:00 +22°C° 0 mm 3 mps 764 mmHg 46%
    09:00 +24°C° 0 mm 3 mps 765 mmHg 44%
    10:00 +25°C° 0 mm 3 mps 765 mmHg 43%
    11:00 +26°C° 0 mm 3 mps 765 mmHg 39%
    12:00 +27°C° 0 mm 2 mps 765 mmHg 36%
    13:00 +28°C° 0 mm 2 mps 765 mmHg 32%
    14:00 +29°C° 0 mm 2 mps 764 mmHg 31%
    15:00 +29°C° 0 mm 3 mps 764 mmHg 31%
    16:00 +29°C° 0 mm 4 mps 763 mmHg 30%
    17:00 +29°C° 0 mm 4 mps 763 mmHg 33%
    18:00 +28°C° 0 mm 4 mps 764 mmHg 35%
    19:00 +27°C° 0 mm 4 mps 764 mmHg 38%
    20:00 +27°C° 0 mm 4 mps 764 mmHg 39%
    21:00 +26°C° 0 mm 4 mps 765 mmHg 40%
    22:00 +26°C° 0 mm 4 mps 765 mmHg 42%
    23:00 +26°C° 0 mm 4 mps 765 mmHg 43%

    22 April, Monday

    Time Temperature Precipitation Wind Pressure Humidity
    00:00 +25°C° 0 mm 4 mps 765 mmHg 45%
    01:00 +25°C° 0 mm 4 mps 764 mmHg 46%
    02:00 +25°C° 0 mm 4 mps 764 mmHg 46%
    03:00 +25°C° 0 mm 4 mps 764 mmHg 45%
    04:00 +25°C° 0 mm 4 mps 764 mmHg 45%
    05:00 +25°C° 0 mm 5 mps 764 mmHg 43%
    06:00 +25°C° 0 mm 5 mps 764 mmHg 42%
    07:00 +25°C° 0 mm 5 mps 764 mmHg 41%
    08:00 +26°C° 0 mm 6 mps 765 mmHg 39%
    09:00 +27°C° 0 mm 6 mps 765 mmHg 37%
    10:00 +28°C° 0 mm 6 mps 765 mmHg 35%
    11:00 +28°C° 0 mm 6 mps 765 mmHg 35%
    12:00 +29°C° 0 mm 6 mps 765 mmHg 34%
    13:00 +30°C° 0 mm 7 mps 764 mmHg 34%
    14:00 +29°C° 0 mm 7 mps 764 mmHg 35%
    15:00 +29°C° 0 mm 7 mps 763 mmHg 37%
    16:00 +29°C° 0 mm 7 mps 763 mmHg 38%
    17:00 +28°C° 0 mm 7 mps 763 mmHg 41%
    18:00 +27°C° 0 mm 7 mps 763 mmHg 44%
    19:00 +27°C° 0 mm 7 mps 763 mmHg 46%
    20:00 +26°C° 0 mm 7 mps 764 mmHg 48%
    21:00 +26°C° 0 mm 6 mps 764 mmHg 50%
    22:00 +26°C° 0 mm 6 mps 764 mmHg 52%
    23:00 +26°C° 0 mm 6 mps 764 mmHg 53%

    23 April, Tuesday

    Time Temperature Precipitation Wind Pressure Humidity
    00:00 +26°C° 0 mm 6 mps 763 mmHg 55%
    01:00 +24°C° 0 mm 6 mps 763 mmHg 56%
    02:00 +24°C° 0 mm 6 mps 763 mmHg 56%
    03:00 +24°C° 0 mm 6 mps 763 mmHg 56%
    04:00 +24°C° 0 mm 6 mps 762 mmHg 56%
    05:00 +24°C° 0 mm 6 mps 763 mmHg 56%
    06:00 +24°C° 0 mm 6 mps 763 mmHg 56%
    07:00 +24°C° 0 mm 6 mps 764 mmHg 56%
    08:00 +26°C° 0 mm 6 mps 764 mmHg 55%
    09:00 +26°C° 0 mm 6 mps 764 mmHg 55%
    10:00 +26°C° 0 mm 6 mps 764 mmHg 54%
    11:00 +26°C° 0 mm 6 mps 764 mmHg 53%
    12:00 +27°C° 0 mm 6 mps 763 mmHg 53%
    13:00 +27°C° 0 mm 6 mps 763 mmHg 52%
    14:00 +27°C° 0 mm 6 mps 762 mmHg 51%
    15:00 +28°C° 0 mm 6 mps 762 mmHg 49%
    16:00 +28°C° 0 mm 6 mps 762 mmHg 48%
    17:00 +28°C° 0 mm 6 mps 762 mmHg 50%
    18:00 +27°C° 0 mm 6 mps 762 mmHg 52%
    19:00 +27°C° 0 mm 6 mps 762 mmHg 54%
    20:00 +26°C° 0 mm 6 mps 763 mmHg 56%
    21:00 +26°C° 0 mm 6 mps 763 mmHg 57%
    22:00 +26°C° 0 mm 6 mps 763 mmHg 59%
    23:00 +26°C° 0 mm 5 mps 763 mmHg 60%

    24 April, Wednesday

    Time Temperature Precipitation Wind Pressure Humidity
    00:00 +26°C° 0 mm 5 mps 762 mmHg 61%
    01:00 +26°C° 0 mm 5 mps 762 mmHg 62%
    02:00 +25°C° 0 mm 5 mps 762 mmHg 63%
    03:00 +25°C° 0 mm 5 mps 762 mmHg 64%
    04:00 +25°C° 0 mm 5 mps 761 mmHg 65%
    05:00 +25°C° 0 mm 5 mps 762 mmHg 64%
    06:00 +26°C° 0 mm 5 mps 762 mmHg 63%
    07:00 +26°C° 0 mm 5 mps 762 mmHg 62%
    08:00 +27°C° 0 mm 5 mps 762 mmHg 58%
    09:00 +27°C° 0 mm 5 mps 762 mmHg 55%
    10:00 +28°C° 0 mm 5 mps 762 mmHg 51%
    11:00 +29°C° 0 mm 4 mps 762 mmHg 49%
    12:00 +29°C° 0 mm 4 mps 762 mmHg 47%
    13:00 +30°C° 0 mm 4 mps 762 mmHg 45%
    14:00 +30°C° 0 mm 4 mps 761 mmHg 45%
    15:00 +30°C° 0 mm 4 mps 761 mmHg 45%
    16:00 +30°C° 0 mm 4 mps 761 mmHg 45%
    17:00 +29°C° 0 mm 5 mps 761 mmHg 47%
    18:00 +28°C° 0 mm 5 mps 761 mmHg 49%
    19:00 +27°C° 0 mm 5 mps 761 mmHg 52%
    20:00 +27°C° 0 mm 4 mps 761 mmHg 52%
    21:00 +27°C° 0 mm 4 mps 762 mmHg 52%
    22:00 +27°C° 0 mm 3 mps 762 mmHg 52%
    23:00 +27°C° 0 mm 3 mps 762 mmHg 53%
    Show more